Flag for Germany Weather past 2 weeks in Karlsruhe, Baden-Württemberg, Germany

Now
55 °F

Broken clouds.


Feels Like: 54 °F
Forecast: 39 / 62 °F
Wind: 7 mph from West

Location: Karlsruhe - Baden Wurttemberg

Current Time: Sep 22, 2014 at 12:13:53 PM

Latest Report: Sep 22, 2014 at 11:50 AM


Visibility: 5 mi

Pressure: 30.15 "Hg

Humidity: 82%

Dew point: 50 °F

Location of KarlsruheLocation

Historic Weather in Karlsruhe — Graph

°F

Karlsruhe temperature yesterday

Maximum temperature yesterday: 68 °F (at 2:20 PM)
Minimum temperature yesterday: 59 °F (at 7:20 PM)
Average temperature yesterday: 63 °F

Past Weeks' High & Low Weather Summary

 TemperatureHumidityPressure
High79 °F (Sep 19, 2:50 PM)94% (Sep 12, 4:50 AM)30.18 "Hg (Sep 12, 4:50 AM)
Low46 °F (Sep 22, 7:20 AM)44% (Sep 7, 1:50 PM)29.83 "Hg (Sep 17, 4:20 PM)
Average64 °F78%30.00 "Hg
* Reported Sep 7 11:20 AM — Sep 22 11:20 AM, Karlsruhe, Weather by CustomWeather, © 2014

Note: Actual official high and low records may vary slightly from our data, if they occured in-between our weather recording intervals... More about our weather records

Advertising

Karlsruhe weather history for previous 24 hours

 ConditionsComfort  
Time TempWeatherWind HumidityBarometerVisibility
11:20 AM
Sep 22
55 °FBroken clouds.7 mph88%30.15 "Hg5 mi
10:50 AM54 °FPartly sunny.6 mph88%30.15 "Hg6 mi
10:20 AM54 °FBroken clouds.6 mph88%30.15 "Hg6 mi
9:50 AM52 °FBroken clouds.6 mph88%30.15 "Hg5 mi
9:20 AM52 °FBroken clouds.6 mph88%30.15 "Hg5 mi
8:50 AM50 °FPartly sunny.5 mph94%30.15 "Hg5 mi
8:20 AM48 °FPartly sunny.5 mph94%30.15 "Hg5 mi
7:50 AM48 °FPassing clouds.5 mph87%30.15 "Hg5 mi
7:20 AM46 °FLight fog.5 mph93%30.12 "Hg5 mi
6:50 AM48 °FLight fog.1 mph94%30.15 "Hg5 mi
6:20 AM48 °FFog.3 mph87%30.12 "HgN/A
5:50 AM48 °FFog.3 mph94%30.12 "HgN/A
5:20 AM50 °FClear.2 mph88%30.12 "Hg10 mi
4:50 AM50 °FClear.2 mph94%30.12 "Hg10 mi
11:20 PM
Sep 21
59 °FPassing clouds.3 mph88%30.09 "HgN/A
10:20 PM59 °FPassing clouds.2 mph88%30.09 "HgN/A
9:50 PM59 °FPassing clouds.2 mph88%30.07 "HgN/A
9:20 PM59 °FLight rain. Partly cloudy.2 mph88%30.07 "HgN/A
8:20 PM59 °FLight rain. Broken clouds.3 mph94%30.04 "HgN/A
7:50 PM59 °FRain showers. Broken clouds.2 mph94%30.04 "Hg4 mi
7:20 PM59 °FRain showers. Broken clouds.3 mph94%30.04 "Hg4 mi
6:50 PM61 °FSprinkles. Broken clouds.3 mph88%30.01 "Hg4 mi
6:20 PM61 °FSprinkles. Broken clouds.6 mph88%30.01 "Hg4 mi
5:50 PM61 °FScattered showers. Broken clouds.8 mph88%29.98 "Hg5 mi
5:20 PM63 °FSprinkles. Broken clouds.5 mph88%29.98 "Hg4 mi
4:50 PM64 °FSprinkles. Broken clouds.7 mph78%29.98 "Hg6 mi
4:20 PM64 °FBroken clouds.5 mph78%29.98 "HgN/A
3:50 PM66 °FSprinkles. Broken clouds.6 mph73%29.98 "HgN/A
3:20 PM66 °FSprinkles. Broken clouds.5 mph73%29.98 "HgN/A
2:50 PM66 °FBroken clouds.8 mph73%29.98 "HgN/A
2:20 PM68 °FBroken clouds.10 mph69%29.98 "HgN/A
1:50 PM66 °FBroken clouds.7 mph73%29.98 "HgN/A
1:20 PM66 °FBroken clouds.7 mph73%29.98 "HgN/A
12:50 PM66 °FScattered showers. Partly sunny.8 mph73%30.01 "HgN/A
12:20 PM66 °FBroken clouds.7 mph73%30.01 "HgN/A
Weather by CustomWeather, © 2014

See weather overviewHow to use our weather pages